Content
SEND FEEDBACK

Daily
Averages
Monthly
Summary
United States of America

CAPE CORAL, FLORIDA


Home > North America > United States > Florida
Elevation: 4 meters     Latitude: 26 35N     Longitude: 081 52W

WEATHER
 
SELECT A DAY
Number of Records: 186,649;   Date Range: 1/1/95 - 7/27/14
 
SHARE

PRINT THIS DATA

[ ← Previous Day ]
WEATHER ALMANAC - 13 FEBRUARY, 2013
[ Next Day → ]
[ °F ]   °C
Weather ElementAverageHighLow
Temperature23.9 °C28.3 °C (1:53 pm)19.4 °C (11:53 pm)
Dewpoint20.7 °C22.2 °C (8:53 am)13.9 °C (11:53 pm)
Humidity82.5 %97 % (3:53 am)60 % (1:53 pm)
Barometer1014.6 hPa1015.9 hPa (9:42 am)1012.9 hPa (5:53 pm)
Wind Speed15.1 km/h25.9 km/h (1:53 pm)
Wind Gust38.9 km/h (11:46 pm)
Weather ElementAverage
Visibility14.2 km
Wind DirectionSSW (190 °)

Weather ElementTotal
Precipitation---
Cooling Degree Days5.5 (Base 18.3)
Growing Degree Days13.8 (Base 10)
Averaged from 28 records on 13 February, 2013
WEATHER CONDITIONS BREAKOUT
WIND DIRECTION BREAKOUT
WEATHER BY HOUR - 13 FEBRUARY, 2013
[ °F ]   °C
Local TimeTemperatureDewpointHumidityBarometerVisibilityWind DirectionWind SpeedGust SpeedPrecipitationEventsConditions
1:53 AM21.1 °C20 °C93 %1015.2 hPa12.9 kmSouth (170°)5.6 km/hClear
2:53 AM21.1 °C20 °C93 %1014.9 hPa11.3 kmSSE (160°)5.6 km/hClear
3:45 AM21 °C20 °C94 %1014.6 hPa11.3 kmSouth (170°)5.6 km/hScattered Clouds
3:53 AM21.1 °C20.6 °C97 %1014.6 hPa11.3 kmSouth (170°)7.4 km/hMostly Cloudy
4:53 AM21.7 °C21.1 °C96 %1014.6 hPa11.3 kmSouth (170°)7.4 km/hOvercast
5:53 AM22.8 °C21.7 °C93 %1014.6 hPa11.3 kmSouth (170°)16.7 km/hOvercast
6:53 AM22.8 °C21.7 °C93 %1014.9 hPa12.9 kmSouth (180°)14.8 km/hOvercast
7:53 AM22.8 °C21.7 °C93 %1014.9 hPa11.3 kmSouth (190°)13 km/hOvercast
8:53 AM23.9 °C22.2 °C90 %1015.6 hPa14.5 kmSouth (190°)16.7 km/h27.8 km/hMostly Cloudy
9:42 AM26 °C22 °C78 %1015.9 hPa16.1 kmSSW (200°)16.7 km/h29.6 km/hScattered Clouds
9:53 AM25.6 °C21.1 °C76 %1015.9 hPa16.1 kmSouth (190°)20.4 km/hPartly Cloudy
10:53 AM26.7 °C21.1 °C71 %1015.9 hPa16.1 kmSSW (210°)22.2 km/h31.5 km/hPartly Cloudy
11:53 AM27.2 °C21.1 °C69 %1015.6 hPa16.1 kmSSW (210°)20.4 km/h31.5 km/hScattered Clouds
12:53 PM27.8 °C20 °C62 %1014.6 hPa16.1 kmSSW (210°)24.1 km/hPartly Cloudy
1:53 PM28.3 °C20 °C60 %1013.9 hPa16.1 kmSSW (200°)25.9 km/h35.2 km/hPartly Cloudy
2:14 PM27 °C21 °C70 %1013.2 hPa16.1 kmSSW (210°)22.2 km/h31.5 km/hMostly Cloudy
2:53 PM27.2 °C20.6 °C67 %1013.2 hPa16.1 kmSW (220°)20.4 km/h35.2 km/hMostly Cloudy
3:53 PM26.7 °C20.6 °C69 %1013.2 hPa16.1 kmSW (220°)22.2 km/h33.3 km/hMostly Cloudy
4:53 PM25.6 °C21.1 °C76 %1013.2 hPa16.1 kmSSW (210°)22.2 km/hScattered Clouds
5:53 PM24.4 °C21.1 °C82 %1012.9 hPa16.1 kmSSW (210°)16.7 km/h33.3 km/hClear
6:53 PM23.9 °C21.1 °C84 %1013.5 hPa16.1 kmSSW (210°)11.1 km/hPartly Cloudy
7:53 PM23.3 °C21.7 °C91 %1013.9 hPa14.5 kmSSW (210°)11.1 km/hClear
8:53 PM23.3 °C21.7 °C91 %1014.2 hPa12.9 kmSSW (200°)14.8 km/hClear
9:53 PM23.3 °C21.7 °C91 %1014.6 hPa12.9 kmSSW (200°)9.3 km/hClear
10:35 PM23 °C22 °C94 %1014.6 hPa12.9 kmCalmMostly Cloudy
10:53 PM22.8 °C21.7 °C93 %1014.6 hPa11.3 kmWest (260°)5.6 km/hOvercast
11:46 PM21 °C16 °C73 %1015.2 hPa16.1 kmNNE (20°)22.2 km/h38.9 km/hOvercast
11:53 PM19.4 °C13.9 °C70 %1015.6 hPa16.1 kmNorth (360°)20.4 km/h0 mmRainLight Rain
Hourly data recorded from KFMY, located 0 kilometers away from Cape Coral, Florida







STORIES FROM OUR PARTNERS